Simultaneous Nadir Overpasses (SNOs) Predictions

Prediction of SNOs between NOAA-19 and NPP Satellite Orbit:

Table of predicted SNOs for the next 14.0 days since TLE Epoch: 6/11/2022
Index Date (NOAA-19) Time (NOAA-19) Lat,Lon (NOAA-19) SZA (NOAA-19 ) Date (NPP) Time (NPP) Lat,Lon (NPP) SZA (NPP ) Distance(km) Time Diff (sec)
1 06/12/2022 05:36:03 -76.78,-104.31 125.53 06/12/2022 05:37:16 -76.80,-103.64 125.59 17.36 73
2 06/12/2022 06:27:05 76.88, 63.38 54.54 06/12/2022 06:28:03 76.86, 63.44 54.48 3.39 58
3 06/12/2022 07:18:00 -76.90,-129.28 125.46 06/12/2022 07:18:48 -76.89,-129.36 125.48 2.51 48
4 06/12/2022 08:09:05 76.88, 37.86 54.53 06/12/2022 08:09:34 76.90, 37.89 54.54 2.52 29
5 06/12/2022 09:00:00 -76.89,-154.80 125.47 06/12/2022 09:00:18 -76.89,-154.74 125.49 1.76 18
6 06/12/2022 09:51:04 76.92, 12.53 54.55 06/12/2022 09:51:04 76.90, 12.51 54.53 1.81 0
7 06/12/2022 10:41:59 -76.93, 179.87 125.45 06/12/2022 10:41:49 -76.93, 179.71 125.44 4.12 10
8 06/12/2022 11:33:04 76.91, -12.99 54.54 06/12/2022 11:32:34 76.90, -12.87 54.53 3.26 30
9 06/12/2022 12:23:59 -76.93, 154.35 125.46 06/12/2022 12:23:19 -76.93, 154.33 125.44 0.65 40
10 06/12/2022 13:15:03 76.95, -38.32 54.56 06/12/2022 13:14:05 76.94, -38.42 54.58 2.69 58
11 06/12/2022 14:05:59 -76.92, 128.84 125.47 06/12/2022 14:04:49 -76.93, 128.95 125.44 3.01 70



Historial Predications of SNOs between NOAA-19 and NPP
